Location: Chuathbaluk
(61.5726°N, 159.2454°W)
Time: 02:56:27
(UTC+00:00)

Altair - Pass Details

Date: 04 December 2020
Orbit: 1501 x 1682 km, 47.2° (Epoch: 23 January)

Event Time Altitude Azimuth Distance (km) Brightness Sun altitude
Rises 08:27:39 0° 248° (WSW) 4,702 10.2 -45.7°
Reaches altitude 10° 08:31:05 10° 239° (WSW) 3,698 9.5 -46.0°
Enters shadow 08:31:13 10° 239° (WSW) 3,661 9.5 -46.0°
